アトラス彗星

C/2022 QE78 ( ATLAS )

English version
Home page
Updated on December 1, 2023

---------------------------------------------------------------------

・ プロフィール

発見日 2022年8月27日
発見光度 19.4等
発見者 Asteroid Terrestrial-Impact Last Alert System (ATLAS) search program

・ 写真集

・ 軌道要素

Epoch 2023 Sept. 13.0 TT = JDT 2460200.5
T 2025 Sept. 10.18570 TT                                Rudenko
q   5.4818933            (2000.0)            P               Q
z  -0.0006080      Peri.    0.34617     -0.50338183     -0.69307746
 +/-0.0000043      Node   119.94611     +0.79132530     -0.60959968
e   1.0033332      Incl.   36.54801     +0.34700289     +0.38474909
>From 523 observations 2022 Aug. 27-2023 Sept. 27, mean residual 0".4.

・ 星図

・ 光度変化

        m1 = 4.0 + 5 logΔ + 10.0 log r

---------------------------------------------------------------------

軌道要素はM.P.E.C. 2023-S260に掲載されたものです。
星図はステラナビゲータ Ver.10 (アストロアーツ) で作成したものです。
光度グラフはComet for Windowsで作成したものです。

---------------------------------------------------------------------

Copyright(C) Seiichi Yoshida (comet@aerith.net). All rights reserved.